Regional Weather Roundup
Issued by NWS

Home | Current Version | Previous Version | Text Only | Print | Product List | Glossary On
Versions: 1 2 3 4 5 6 7 8 9 10 11 12 13 14 15 16 17 18 19 20 21 22 23 24 25 26 27 28 29 30 31 32 33 34 35 36 37 38 39 40 41 42 43 44 45 46 47 48 49 50
316
ASUS44 KOUN 251000
RWROK

WEATHER ROUNDUP FOR OKLAHOMA
NATIONAL WEATHER SERVICE NORMAN OK
500 AM CDT THU AUG 25 2016

NOTE: "FAIR" INDICATES FEW OR NO CLOUDS BELOW 12,000 FEET WITH NO
      SIGNIFICANT WEATHER AND/OR OBSTRUCTIONS TO VISIBILITY.

OKZ001>007-009>012-014-015-017-251100-
NORTHWEST OKLAHOMA AND THE PANHANDLE

CITY           SKY/WX    TMP DP  RH WIND       PRES   REMARKS
GAGE           CLOUDY    68  66  93 CALM      30.08F
GUYMON         CLOUDY    64  62  93 N5        30.12R
$$

OKZ016-021>023-033>039-044-045-251100-
SOUTHWEST OKLAHOMA

CITY           SKY/WX    TMP DP  RH WIND       PRES   REMARKS
LAWTON/REGL    CLEAR     73  68  84 CALM      30.05R
FREDERICK      CLEAR     73  69  87 S6        30.01S
CLINTON        CLOUDY    71  65  81 CALM      30.09S
HOBART         PTCLDY    71  67  87 NW6       30.06S
$$

OKZ018>020-024>031-251100-
CENTRAL OKLAHOMA

CITY           SKY/WX    TMP DP  RH WIND       PRES   REMARKS
OKLAHOMA CITY  PTCLDY    73  69  87 S9        30.04S
OKC/WILEY POST CLEAR     76  68  76 S13       30.04R
OKC/TINKER AFB CLEAR     74  68  82 S9        30.04S
STILLWATER     CLEAR     76  68  76 S10       30.02S
GUTHRIE        CLEAR     79  68  69 SW12      30.02S
$$

OKZ008-013-054>072-251100-
NORTHEAST OKLAHOMA

CITY           SKY/WX    TMP DP  RH WIND       PRES   REMARKS
TULSA          CLEAR     76  69  79 E5        30.02S
TULSA/JONES    CLEAR     75  71  87 CALM      30.03F
PONCA CITY     PTCLDY    73  68  84 CALM      30.02R
BARTLESVILLE   CLEAR     69  65  86 CALM      30.04F
MUSKOGEE       CLEAR     71  68  90 S6        30.05F
$$

OKZ032-040>043-046>053-073>077-251100-
SOUTH CENTRAL/SOUTHEAST OKLAHOMA

CITY           SKY/WX    TMP DP  RH WIND       PRES   REMARKS
MCALESTER      CLEAR     73  69  87 CALM      30.06S
$$





USA.gov is the U.S. government's official web portal to all federal, state and local government web resources and services.